www.pogodaiklimat.ru

Погода и климат >> Архив погоды >> Португалия >> Ангра-ду-Эроижму


ПОГОДА в Ангра-ду-Эроижму

  • Прогноз погоды в Ангра-ду-Эроижму
  • Монитор погоды в Ангра-ду-Эроижму

АРХИВ ПОГОДЫ в Ангра-ду-Эроижму

Время (UTC), дата Ветер
(напр.,м/с)
 
Видим.   Явления Облачность Т
(С)
Тd
(С)
f
(%)
Тe
(С)
Тes
(С)
Комфортность P
(гПа)
Po
(гПа)
Тmin
(С)
Tmax
(С)
R
(мм)
R24
(мм)
S
(см)
22 13.04 штиль 0 н/о н/о +12.5 +10.6 88 +12 +12 1013.6 1002.8 0.1
23 13.04 штиль 0 н/о н/о +12.2 +10.6 90 +12 +12 1013.7 1002.9 0.1
00 14.04 штиль 0 н/о н/о +11.3 +9.9 91 +11 +11 1013.0 1002.1
01 14.04 СЗ 1 н/о н/о +11.7 +8.4 80 +12 +12 1011.5 1000.7
02 14.04 штиль 0 н/о н/о +10.7 +8.9 89 +10 +10 1011.7 1000.9
03 14.04 штиль 0 н/о н/о +10.7 +9.3 91 +10 +10 1011.3 1000.5
04 14.04 штиль 0 н/о н/о +10.9 +8.9 87 +10 +10 1010.6 999.7
05 14.04 штиль 0 н/о н/о +11.1 +8.3 83 +10 +10 1010.2 999.4
06 14.04 З 3-7
{7}
н/о н/о +11.5 +8.9 84 +10 +10 1010.1 999.3 +10.2
07 14.04 ЮЗ 4-6
{8}
н/о н/о +11.2 +6.7 74 +9 +9 1010.3 999.5 0.5
08 14.04 ЮЗ 3
{6}
н/о н/о +11.5 +8.3 81 +10 +10 1010.8 1000.0
09 14.04 нст 3-6
{7}
н/о н/о +11.6 +9.4 86 1011.4 1000.6
10 14.04 Ю 5-9
{9}
н/о н/о +13.4 +8.7 73 +11 +11 1011.4 1000.7
11 14.04 ЮЗ 4-6
{11}
н/о н/о +13.0 +7.9 71 +11 +11 1012.0 1001.3 0.1
12 14.04 Ю 4-8
{11}
н/о н/о +14.5 +9.1 70 +13 +13 1012.5 1001.8 0.5
13 14.04 ЮЗ 6-11
{13}
н/о н/о +14.8 +6.6 58 +13 +13 1012.6 1001.9
14 14.04 Ю 7-12
{14}
н/о н/о +14.9 +7.1 60 +13 +13 1012.6 1001.9
15 14.04 ЮЗ 6-12
{15}
н/о н/о +13.8 +7.7 67 +12 +12 1012.8 1002.1 0.1
16 14.04 Ю 6-11
{13}
н/о н/о +14.1 +8.1 67 +12 +12 1012.9 1002.2 0.1
17 14.04 ЮЗ 6-11
{12}
н/о н/о +12.2 +8.0 75 +10 +10 1013.3 1002.5 0.2
18 14.04 Ю 7-11
{14}
н/о н/о +13.7 +6.3 61 +11 +11 1013.5 1002.8 +15.6
19 14.04 ЮЗ 5-8
{13}
н/о н/о +13.1 +7.3 68 +11 +11 1014.3 1003.5 0.1
20 14.04 ЮЗ 4-7
{10}
н/о н/о +12.7 +5.9 63 +11 +11 1014.7 1003.9
21 14.04 ЮЗ 3-6
{8}
н/о н/о +12.3 +7.0 70 +11 +11 1015.5 1004.7 1
22 14.04 ЮЗ 3-6
{9}
н/о н/о +12.1 +7.2 72 +11 +11 1016.1 1005.3
23 14.04
{6}
н/о н/о +11.8 +6.7 71 1016.4 1005.5
00 15.04 штиль 0
{5}
н/о н/о +12.2 +7.1 71 +12 +12 1016.4 1005.6
01 15.04
{9}
н/о н/о +11.3 +8.5 83 1016.3 1005.4 0.1
02 15.04 Ю 4-7
{9}
н/о н/о +12.1 +8.4 78 +10 +10 1016.2 1005.3
03 15.04 нст 3
{8}
н/о н/о +12.2 +8.9 80 1015.0 1004.2
04 15.04 Ю 4-7
{8}
н/о н/о +12.8 +6.9 67 +11 +11 1014.3 1003.5
05 15.04 Ю 6-10
{10}
н/о н/о +13.7 +9.0 73 +12 +12 1013.5 1002.8
06 15.04 ЮВ 6-11
{14}
н/о н/о +13.8 +9.0 73 +12 +12 1012.8 1002.1 +10.9
07 15.04 ЮВ 9
{14}
н/о н/о +13.7 +10.7 82 +11 +11 1012.0 1001.3
08 15.04 ЮВ 8-15
{15}
н/о н/о +13.8 +12.4 91 +11 +11 1011.8 1001.0
09 15.04 ЮВ 9-14
{15}
500 м {дождь} 10/10 100 м
[Frnb Ns]
+13.8 +12.8 94 +11 +11 1011.2 1000.5 0.5
10 15.04 ЮВ 10-16
{16}
н/о н/о +14.5 +13.1 91 +12 +12 1009.8 999.1
11 15.04 ЮВ 13
{20}
н/о н/о +14.9 +13.7 93 +12 +12 1008.9 998.2
12 15.04 ЮВ 14
{21}
200 м слаб. дождь 10/10 150 м
[Cu Sc]
+14.0 +12.2 89 +11 +11 1007.8 997.2
13 15.04 ЮВ 12-20
{22}
н/о н/о +15.0 +15.0 100 +12 +12 1006.8 996.1 0.2
14 15.04 Ю 5-8
{22}
н/о н/о +12.5 +12.5 100 +10 +10 1007.3 996.6 6
15 15.04 Ю 3-6
{10}
100 м {дождь} 10/10 50 м
[Cu Sc]
+12.5 +11.5 94 +11 +11 1006.7 996.0 3
16 15.04 ЮВ 6-10
{10}
н/о н/о +12.6 -31.6 3 +11 +11 1005.6 994.9 2
17 15.04 ЮВ 6-10
{11}
н/о н/о +13.0 +11 +11 1004.1 993.5 4
18 15.04 Ю 8-14
{14}
н/о н/о +12.4 +10 +10 1003.0 992.4 +15.1 8
19 15.04 Ю 7-11
{16}
н/о н/о +13.6 +12 +12 1002.4 991.8 3
20 15.04 Ю 6
{13}
н/о н/о +13.2 +12 +12 1001.5 990.9 1
21 15.04 Ю 4-9
{10}
н/о н/о +13.9 -30.7 3 +13 +13 1001.1 990.5 28
22 15.04 Ю 5-9
{10}
н/о н/о +14.2 -29.7 3 +13 +13 1000.8 990.3
23 15.04 Ю 4-7
{14}
н/о н/о +11.8 +11.8 100 +9 +9 1001.0 990.3 0.5
00 16.04 Ю 8-13
{13}
н/о н/о +12.7 +10.7 88 +10 +10 1000.6 990.0
01 16.04 Ю 8-13
{14}
н/о н/о +12.3 +10.2 87 +9 +9 1000.2 989.5 0.5
02 16.04 Ю 9-16
{17}
н/о н/о +13.4 +9.8 79 +10 +10 999.4 988.8
03 16.04 Ю 9-15
{16}
н/о н/о +12.4 +11.8 96 +9 +9 998.9 988.3 0.2
04 16.04 Ю 10-15
{19}
н/о н/о +12.6 +12.6 100 +9 +9 997.7 987.1 1
05 16.04 ЮЗ 10-20
{21}
н/о н/о +13.3 +10.7 84 +10 +10 998.2 987.6
06 16.04 ЮЗ 9-16
{19}
н/о н/о +13.5 +9.1 75 +11 +11 999.5 988.9 +11.6
07 16.04 ЮЗ 8-16
{18}
н/о н/о +13.4 +8.7 73 +11 +11 1000.2 989.6
08 16.04 ЮЗ 9-15
{19}
н/о н/о +13.5 +9.3 76 +11 +11 1001.0 990.4
09 16.04 ЮЗ 11-20
{21}
1000 м 3/3 200 м
[Cu med, cong]
+13.8 +8.8 72 +11 +11 1001.7 991.1
10 16.04 ЮЗ 11-20
{22}
н/о н/о +13.4 +9.8 79 +10 +10 1003.1 992.4 0.1
11 16.04 ЮЗ 10-22
{23}
н/о н/о +14.6 +8.5 67 +12 +12 1003.5 992.9
12 16.04 ЮЗ 9-17
{17}
1500 м {ливн. осадки} 4/4 600 м
[Cu med, cong]
+15.0 +9.7 71 +13 +14 1004.7 994.1 0.2
13 16.04 ЮЗ 8-14
{20}
н/о н/о +15.1 +9.7 70 +13 +13 1005.5 994.9
14 16.04 ЮЗ 8-14
{19}
н/о н/о +16.0 +8.5 61 +14 +14 1006.0 995.4
15 16.04 ЮЗ 8-15
{17}
1000 м {ливн. осадки} 8/8 100 м
[Frnb As op]
+14.0 +10.9 82 +11 +12 1007.1 996.4 0.1
16 16.04 ЮЗ 6-12
{15}
н/о н/о +14.1 +10.0 76 +12 +12 1008.2 997.5
17 16.04 ЮЗ 7-13
{14}
н/о н/о +14.4 +9.3 71 +12 +12 1008.6 997.9
18 16.04 ЮЗ 5-10
{16}
н/о н/о +13.4 +10.8 84 +11 +11 1009.6 998.9 +16.1 0.4
19 16.04 ЮЗ 5-9
{12}
н/о н/о +13.4 +10.4 82 +11 +11 1010.6 999.9 0.2
20 16.04 ЮЗ 5-11
{11}
н/о н/о +13.3 +8.0 70 +11 +11 1011.2 1000.5
21 16.04 ЮЗ 5-10
{11}
н/о н/о +13.1 +8.3 73 +11 +11 1012.1 1001.3 1
22 16.04 ЮЗ 4-7
{12}
н/о н/о +12.6 +9.5 81 +11 +11 1013.0 1002.2 0.1
23 16.04 ЮЗ 3-5
{9}
н/о н/о +12.2 +9.1 81 +11 +11 1013.5 1002.7 0.2
00 17.04 С 1-8
{8}
н/о н/о +12.4 +8.2 76 +12 +12 1013.8 1003.0
01 17.04 ЮЗ 4-6
{7}
н/о н/о +12.5 +7.7 73 +11 +11 1013.9 1003.1
02 17.04 С 3
{9}
н/о н/о +12.2 +8.3 77 +11 +11 1014.0 1003.2
03 17.04 нст 1
{6}
н/о н/о +12.2 +8.9 80 1013.8 1003.0
04 17.04 ЮЗ 3-6
{8}
н/о н/о +12.3 +8.1 76 +11 +11 1013.9 1003.1
05 17.04 С 1-5
{6}
н/о н/о +11.9 +7.5 74 +12 +12 1014.0 1003.1
06 17.04 С 1 н/о н/о +11.9 +8.2 78 +12 +12 1014.2 1003.4 +11.6
07 17.04 штиль 0 н/о н/о +11.6 +8.0 79 +11 +11 1014.9 1004.1
08 17.04 штиль 0
{5}
н/о н/о +12.5 +8.5 77 +12 +12 1015.2 1004.4
09 17.04 нст 1
{5}
2000 м 3/3 1200 м
[Cu med, cong Ci fib]
+13.7 +8.9 73 +14 +16 1015.8 1005.0
10 17.04 Ю 4-7
{7}
н/о н/о +14.4 +9.0 70 +13 +13 1015.9 1005.2
11 17.04 Ю 5-7
{8}
н/о н/о +15.3 +10.5 73 +14 +14 1016.6 1005.9
12 17.04 Ю 4-7
{9}
2000 м 8/8 900 м
[Cu med, cong]
+16.0 +10.3 69 +15 +17 1017.0 1006.3
13 17.04 Ю 5-7
{9}
н/о н/о +15.7 +9.4 66 +15 +15 1017.2 1006.5
14 17.04 ЮВ 4
{7}
н/о н/о +15.3 +10.6 74 +14 +14 1017.2 1006.5
15 17.04 нст 1
{6}
1800 м 10/10 200 м
[St Ac trans]
+16.0 +10.4 69 1017.4 1006.6
16 17.04 штиль 0 н/о н/о +15.4 +11.2 76 +15 +15 1017.4 1006.7
17 17.04 С 1 н/о н/о +15.4 +13.0 86 +16 +16 1017.1 1006.4
18 17.04 Ю 4-6
{7}
н/о н/о +14.8 +14.8 100 +13 +13 1017.4 1006.7 +16.6
19 17.04 Ю 3-6
{7}
н/о н/о +14.3 +14 +14 1017.7 1007.0 0.6
20 17.04 С 1
{6}
н/о н/о +14.4 -29.8 3 +15 +15 1018.0 1007.3 0.7
21 17.04 нст 1 н/о н/о +14.5 -30.3 3 +15 +15 1018.6 1007.8 2
22 17.04 штиль 0 н/о н/о +14.7 +15 +15 1019.2 1008.5 0.1
23 17.04 штиль 0 н/о н/о +14.8 +15 +15 1019.4 1008.7 0.1
00 18.04 штиль 0 н/о н/о +14.7 -30.2 3 +15 +15 1019.4 1008.7
01 18.04 штиль 0 н/о н/о +15.0 +15 +15 1019.7 1008.9
02 18.04 штиль 0 н/о н/о +15.1 -29.1 3 +15 +15 1019.7 1008.9
03 18.04 штиль 0 н/о н/о +14.4 +15 +15 1019.6 1008.8
04 18.04 штиль 0 н/о н/о +14.4 +15 +15 1019.6 1008.9
05 18.04 штиль 0 н/о н/о +14.0 -30.7 3 +14 +14 1019.5 1008.7
06 18.04 штиль 0 н/о н/о +14.3 +15 +15 1019.7 1009.0 +13.6
07 18.04 штиль 0 н/о н/о +13.4 -31.1 3 +14 +14 1020.4 1009.5
08 18.04 штиль 0 н/о н/о +14.2 -30.5 3 +14 +14 1020.9 1010.1
09 18.04 штиль 0 1500 м 3/3 300 м
[Cu med, cong Ci fib]
+15.2 +13.7 91 +15 +18 1021.3 1010.6
10 18.04 штиль 0 н/о н/о +16.5 +17 +17 1021.6 1010.9
11 18.04 штиль 0 н/о н/о +16.9 +17 +17 1022.3 1011.6
12 18.04 штиль 0 1000 м 10/10 180 м
[Cu Sc]
+16.0 +14.9 93 +16 +16 1022.6 1011.9
13 18.04 ЮВ 4 н/о н/о +16.4 -28.0 3 +16 +16 1022.7 1012.0
14 18.04
{5}
н/о н/о +16.9 -28.7 3 1022.6 1011.9
15 18.04 нст 2
{6}
500 м 10/10 100 м
[Frnb Ns]
+16.0 +14.4 90 +16 +16 1022.6 1011.8
16 18.04 нст 2
{5}
н/о н/о +16.5 1022.2 1011.5
17 18.04 Ю 4-7
{7}
н/о н/о +16.7 +16 +16 1022.2 1011.5
18 18.04 С 3
{7}
н/о н/о +16.4 -29.0 3 +16 +16 1022.4 1011.7 +17.4
19 18.04 Ю 3-5
{5}
н/о н/о +16.2 -29.2 3 +16 +16 1022.9 1012.1
20 18.04 С 2
{7}
н/о н/о +16.1 -28.4 3 +16 +16 1023.3 1012.5
21 18.04 штиль 0 н/о н/о +15.9 -29.4 3 +16 +16 1023.8 1013.0
22 18.04 нст 2
{5}
н/о н/о +15.8 1024.8 1014.0
23 18.04 С 1 н/о н/о +15.3 +16 +16 1024.9 1014.1
00 19.04 штиль 0 н/о н/о +14.9 +15 +15 1025.0 1014.2
01 19.04 штиль 0 н/о н/о +14.6 -30.2 3 +15 +15 1025.1 1014.3
02 19.04 штиль 0 н/о н/о +15.4 +16 +16 1024.9 1014.1
03 19.04 штиль 0 н/о н/о +16.0 +16 +16 1024.8 1014.0
04 19.04 штиль 0 н/о н/о +16.0 +16 +16 1024.5 1013.8
05 19.04 штиль 0 н/о н/о +15.9 +16 +16 1024.5 1013.8
06 19.04 штиль 0 н/о н/о +15.6 +16 +16 1024.6 1013.8 +14.6
07 19.04 штиль 0 н/о н/о +15.3 +16 +16 1025.0 1014.2
08 19.04 штиль 0 н/о н/о +15.4 -29.7 3 +16 +16 1025.3 1014.5
09 19.04 штиль 0 н/о н/о +16.1 +16 +16 1025.7 1014.9
10 19.04 штиль 0 н/о н/о +16.5 +17 +17 1026.1 1015.4
11 19.04 штиль 0 н/о н/о +18.4 +18.4 100 +19 +19 1026.5 1015.8
12 19.04 штиль 0 н/о н/о +17.3 +17.3 100 +17 +17 1026.7 1015.9
13 19.04 штиль 0 н/о н/о +18.5 +18.5 100 +19 +19 1026.5 1015.8
14 19.04 штиль 0 н/о н/о +17.8 +17.8 100 +18 +18 1026.7 1015.9
15 19.04 штиль 0 н/о н/о +17.9 +17.9 100 +18 +18 1026.8 1016.1
16 19.04 штиль 0 н/о н/о +17.3 +17 +17 1026.7 1015.9
17 19.04 штиль 0 н/о н/о +17.4 -26.2 4 +17 +17 1026.6 1015.9
18 19.04 штиль 0 н/о н/о +17.1 -28.5 3 +17 +17 1026.9 1016.2 +19.3
19 19.04 штиль 0 н/о н/о +17.1 -28.5 3 +17 +17 1027.3 1016.5
20 19.04 штиль 0 н/о н/о +17.0 +17 +17 1027.5 1016.7
21 19.04 штиль 0 н/о н/о +16.8 -28.7 3 +17 +17 1028.1 1017.3
22 19.04 штиль 0 н/о н/о +16.2 +16 +16 1028.6 1017.8
23 19.04 штиль 0 н/о н/о +16.0 -28.5 3 +16 +16 1028.7 1017.8
00 20.04 З 2 н/о н/о +16.5 +17 +17 1028.1 1017.3
01 20.04 штиль 0 н/о н/о +17.4 +15.1 86 +17 +17 1028.0 1017.2
02 20.04 штиль 0 н/о н/о +16.3 +15.5 95 +16 +16 1027.8 1017.0
03 20.04 штиль 0 н/о н/о +15.1 +14.8 98 +15 +15 1027.3 1016.5
04 20.04 штиль 0 н/о н/о +14.8 +14.8 100 +14 +14 1027.3 1016.5
05 20.04 штиль 0 н/о н/о +15.0 +15.0 100 +15 +15 1027.4 1016.6
06 20.04 СЗ 3 н/о н/о +14.5 +14.5 100 +13 +13 1027.2 1016.4 +14.4
07 20.04 штиль 0 н/о н/о +15.6 +15.6 100 +15 +15 1028.1 1017.3
08 20.04 С 1 н/о н/о +15.9 -29.4 3 +17 +17 1028.3 1017.5
09 20.04 штиль 0 н/о н/о +16.1 +16 +16 1028.9 1018.0
10 20.04 СВ 2
{5}
н/о н/о +16.1 +16.1 100 +16 +16 1029.0 1018.1
11 20.04 С 3
{6}
н/о н/о +17.2 +16.8 97 +17 +17 1029.3 1018.5
12 20.04 СВ 3-6
{6}
н/о н/о +17.8 +16.9 94 +18 +18 1029.1 1018.4
13 20.04 СВ 4-7
{7}
н/о н/о +18.2 +16.9 92 +18 +18 1029.2 1018.5
14 20.04 СВ 5-8
{8}
н/о н/о +18.6 +14.7 78 +19 +19 1029.2 1018.5
15 20.04 СВ 4-7
{8}
н/о н/о +18.4 +15.3 82 +19 +19 1029.3 1018.5
16 20.04 СВ 4-7
{8}
н/о н/о +18.4 +16.7 90 +19 +19 1028.8 1018.0
17 20.04 -7
{7}
н/о н/о +17.9 +15.9 88 1028.7 1018.0
18 20.04 С 4-7
{8}
н/о н/о +18.0 +13.9 77 +18 +18 1029.1 1018.4 +19.5
19 20.04 СЗ 3-5
{7}
н/о н/о +17.4 +14.1 81 +17 +17 1029.6 1018.8
20 20.04 С 3-6
{6}
н/о н/о +16.9 +13.7 81 +17 +17 1029.8 1019.0
21 20.04 С 2
{6}
н/о н/о +16.4 +14.5 89 +16 +16 1030.0 1019.1

 

Местоположение метеостанции Ангра-ду-Эроижму (Португалия): широта 38.67 долгота -27.21 высота над уровнем моря 76 м.

В архиве по умолчанию представлена погода в Ангра-ду-Эроижму за последнюю неделю. Архивные данные за месяц целиком и за предыдущие месяцы, начиная с января 2011 года, Вы можете получить, выбрав интересующий диапазон дат из раскрывающегося списка и нажав кнопку "Ввод!".


*Определитесь, кто Вы:
робот инопланетянин человек

Внимание! Время в таблицах - всемирное. Для получения местного времени необходимо прибавить поправку, которая равна 0 ч.

Смотрите также архив погоды в соседних городах и на ближайших метеорологических станциях:

Погода в Аэропорту Лажеша (Португалия) (15 км)
Погода в Сан-Жоржи (Португалия) (83 км)
Погода на Острове Грасьоса (Португалия) (84 км)
Погода в Пико (Португалия) (108 км)
Погода в Орте (Португалия) (125 км)
Погода в Каштелу-Бранку (Португалия) (131 км)
Погода в Понта-Делгаде (Португалия) (168 км)
Погода в Санта-Марии (Португалия) (261 км)
Погода на Флошише (Португалия) (349 км)
Погода в Фуншале (Португалия) (1148 км)

Пояснения к столбцам:

Ветер - указаны скорость ветра в м/с - средняя за 10 мин, порывы в срок и между сроками (в фигурных скобках) и направление, откуда дует ветер: С - северный, СВ - северо-восточный, В - восточный, ЮВ - юго-восточный, Ю - южный, ЮЗ - юго-западный, З - западный, СЗ - северо-западный.
Видимость - горизонтальная дальность видимости в метрах или километрах. При видимости от 1 до 10 км при отсутствии осадков обычно наблюдается дымка, при ухудшении видимости до 1 км и менее - туман. В сухую погоду видимость может ухудшаться дымом, пылью или мглою.
Явления - указаны атмосферные явления, наблюдавшиеся в срок или в последний час перед сроком; фигурными скобками обозначены явления, наблюдавшиеся между сроками (за 1-3 часа до срока); квадратными скобками обозначены град или гололедные отложения с указанием их диаметра в мм.
Облачность - указаны через наклонную черту общая и нижняя облачность в баллах и высота нижней границы облаков в метрах; квадратными скобками обозначены формы облаков: Ci - перистые, Cs - перисто-слоистые, Cc - перисто-кучевые, Ac - высококучевые, As - высокослоистые, Sc - слоисто-кучевые, Ns - слоисто-дождевые, Cu - кучевые, Cb - кучево-дождевые. Подробнее классификацию облаков см. в Атласе облаков (PDF).
T - Температура воздуха - температура, измеренная на высоте 2 м над землей.
Td - Температура точки росы - температура, при понижении до которой содержащийся в воздухе водяной пар достигнет насыщения.
f - Относительная влажность воздуха - влажноcть воздуха, измеренная на высоте 2 м над землей.
Te - Эффективная температура - температура, которую ощущает одетый по сезону человек в тени. Характеристика душности погоды. При расчете учитывается влияние влажности воздуха и скорости ветра на теплоощущения человека.
Tes - Эффективная температура на солнце - температура, которую ощущает человек, с поправкой на солнечный нагрев. Характеристика знойности погоды. Зависит от высоты солнца над горизонтом, облачности и скорости ветра. Ночью, в пасмурную погоду, а также при ветре 12 м/с и более поправка равна нулю.
P - Атмосферное давление - приведенное к уровню моря атмосферное давление.
Po - Атмосферное давление - измеренное на уровне метеостанции атмосферное давление.
Tmin - Минимальная температура - минимум температуры воздуха на высоте 2 м над землей.
Tmax - Максимальная температура - максимум температуры воздуха на высоте 2 м над землей.
R - Количество осадков - Количество выпавших осадков за период времени, мм. При наведении курсора мыши на число - период времени, за который выпало указанное количество осадков.
R24 - Количество осадков - Количество выпавших осадков за 24 часа, мм.
S - Снежный покров - Высота снежного покрова, см. При наведении курсора мыши на число - состояние снежного покрова и степень покрытия местности в баллах.